Location: Arrodets-la-Barthe
(43.0306°N, 0.2829°E)
Time: 19:08:09
(UTC+00:00)

CZ-4 R/B - Pass Details

Date: 24 October 2021
Orbit: 531 x 595 km, 97.8° (Epoch: 02 December)

Event Time Altitude Azimuth Distance (km) Brightness Sun altitude
Exits shadow 18:01:02 - 136° (SE) 2,397 4.2 -11.4°
Reaches altitude 10° 18:02:28 10° 128° (SE) 1,859 3.6 -11.7°
Maximum altitude 18:05:56 28° 69° (ENE) 1,084 2.3 -12.3°
Drops below altitude 10° 18:09:29 10° 9° (N) 1,904 3.9 -13.0°
Sets 18:11:52 0° 358° (N) 2,818 4.9 -13.4°
